Wetbulb
70.91 70.29 69.45 71.46 71.68 69.13 68.83 67.58 67.21 68.86 69.75 70.13 70.28 69.58 68.72 67.01 67.89 66.94 65.41 64.88 64.09 63.91 63.86 63.21 62.79 63.05 61.45 61.34 60.43 58.57 56.97 56.11 53.23 55.73 56.00 57.15 60.40 58.30 59.28 60.04 59.80 57.83 57.50
70.52 70.57 70.11 68.27 68.27 67.87 66.16 67.22 69.76 70.75 70.52 69.93 69.38 69.37 68.49 67.67 67.33 65.71 64.83 64.50 63.51 62.50 62.40 62.18 62.03 62.88 62.06 60.74 59.66 58.49 58.00 57.98 55.70 53.46 55.14 55.93 57.37 58.66 57.66 57.00 57.55 58.22 56.27
71.24 69.94 69.11 68.49 68.86 68.21 67.92 70.97 70.89 70.20 69.50 69.43 68.94 67.89 67.43 67.12 65.95 65.60 65.04 63.95 63.82 63.37 62.47 61.54 61.71 61.72 60.94 60.02 59.78 58.87 58.14 58.09 57.21 54.69 53.51 55.99 57.05 56.11 54.39 54.83 55.03 54.53 55.45
69.66 69.12 68.74 69.45 70.05 70.01 70.10 69.60 68.51 67.90 66.85 65.93 66.13 65.19 63.86 63.70 65.17 64.86 63.95 63.62 63.14 63.07 62.26 61.57 61.27 60.77 59.97 59.43 58.98 58.47 58.27 57.33 56.24 54.94 54.46 53.99 54.29 54.09 53.34 51.52 50.79 52.16 51.80
68.66 69.11 68.72 70.35 70.03 67.43 67.44 66.15 66.18 65.42 65.43 64.91 64.19 63.64 63.81 62.72 60.74 62.12 62.07 61.41 61.41 61.43 61.95 62.50 62.07 61.86 60.94 60.15 60.07 58.41 58.15 56.92 55.19 54.53 53.71 53.84 53.64 52.54 50.81 51.34 50.95 49.92 50.48
67.61 67.18 66.76 66.78 65.48 65.80 65.93 66.32 64.77 64.31 63.55 63.12 62.50 61.78 61.17 60.72 54.94 54.92 56.37 59.93 59.82 59.16 58.53 59.11 60.55 60.90 60.05 57.51 57.30 57.29 57.95 57.22 55.76 54.85 53.91 53.72 54.01 53.20 52.07 51.71 50.77 48.34 47.00
65.46 65.11 64.75 64.49 63.39 63.67 63.96 64.18 63.66 63.53 63.89 62.57 61.50 61.32 60.48 61.12 53.74 51.58 52.36 57.70 58.62 58.45 58.13 57.99 57.87 58.03 57.71 59.31 56.88 55.31 55.44 54.59 54.66 53.95 53.97 54.41 53.52 54.10 54.00 52.53 50.49 49.72 48.80
64.32 62.97 62.92 62.63 61.68 62.21 62.59 61.96 62.18 62.15 61.46 60.85 58.55 60.32 59.67 58.28 51.46 50.25 50.10 56.62 58.75 58.39 58.17 58.17 57.75 58.36 58.51 57.40 57.91 56.23 56.02 55.90 55.48 55.45 54.83 55.14 55.86 55.70 55.21 53.44 51.21 50.57 51.46
62.17 61.68 61.58 61.45 60.59 60.26 60.19 61.99 62.22 61.44 60.78 58.89 59.92 58.80 58.89 59.31 52.44 49.87 50.51 57.24 55.96 56.95 56.82 57.34 56.65 55.07 51.09 49.28 55.40 54.19 55.01 55.36 54.88 53.56 52.71 52.01 50.92 50.21 53.44 53.52 49.92 48.58 48.29
61.08 60.69 60.82 60.95 60.49 59.34 59.98 61.99 62.36 61.17 59.39 58.54 57.60 58.36 56.71 57.69 51.07 47.85 50.43 52.49 53.54 53.33 55.73 55.56 51.60 49.02 46.56 45.92 54.55 54.69 52.91 53.83 54.57 54.12 54.45 51.89 50.66 52.50 51.00 53.26 51.57 48.99 48.88
60.40 59.98 59.96 60.55 61.34 59.95 61.24 62.20 61.10 60.17 59.24 57.18 57.18 58.52 58.39 53.84 55.02 48.50 47.73 55.13 53.23 53.73 53.07 53.27 53.95 44.14 43.63 43.96 44.12 52.07 52.54 50.91 53.54 54.12 54.25 54.70 54.49 52.72 52.00 53.35 53.09 51.94 49.81
60.17 58.62 58.76 60.59 59.42 57.75 61.24 61.65 61.53 57.68 53.31 53.01 55.91 52.86 54.71 53.41 50.80 50.17 47.60 46.79 50.47 53.36 52.92 53.23 53.66 44.95 44.85 43.62 44.96 46.50 43.21 47.22 52.47 53.52 54.70 53.15 51.13 50.95 51.43 52.50 53.43 53.29 53.38
59.06 59.26 59.36 59.98 58.89 59.61 60.20 58.47 56.49 57.69 55.34 52.57 52.68 52.66 53.29 54.46 55.24 48.61 46.15 45.37 46.13 50.04 53.16 49.92 45.66 44.61 44.78 46.41 44.16 43.63 43.93 51.01 50.89 50.84 51.65 52.19 51.75 52.37 52.47 52.46 53.38 53.53 53.24
58.85 59.34 60.12 59.81 57.98 60.33 57.14 54.15 55.65 51.99 54.50 51.91 52.04 52.01 52.27 52.51 52.90 52.35 52.47 52.80 50.17 51.10 49.53 48.99 48.27 46.26 45.56 47.10 47.02 49.12 52.26 51.19 50.62 50.37 51.82 51.33 51.69 51.67 50.93 51.43 50.87 51.00 50.77
59.80 58.24 59.60 56.50 58.37 57.25 56.98 53.74 53.85 53.36 51.07 49.52 51.73 51.77 50.55 50.86 49.64 43.45 43.19 46.19 46.17 45.07 42.00 46.83 49.41 50.80 51.03 51.48 52.32 52.91 50.94 50.60 50.10 50.60 50.12 50.10 50.10 50.37 50.41 51.38 51.05 50.60 48.59
58.82 56.96 55.82 55.93 55.83 55.77 53.64 53.41 49.34 46.35 45.50 43.59 41.73 45.02 51.60 44.09 40.80 40.31 39.83 39.83 39.45 39.17 44.58 47.70 48.25 48.84 50.13 50.58 50.90 51.22 49.77 49.32 49.51 49.63 49.56 49.34 48.41 47.94 49.17 50.65 50.90 49.67 47.84
56.19 56.80 55.41 54.04 54.81 53.49 53.89 53.67 51.70 51.51 45.93 43.66 43.06 41.81 40.13 39.65 40.22 39.07 39.47 38.74 41.22 41.82 48.78 48.83 48.01 47.72 46.90 47.55 47.28 48.78 48.38 49.46 49.75 49.32 48.52 48.32 48.93 49.51 48.48 49.13 49.78 49.69 48.36
57.65 48.53 53.87 53.16 52.51 52.28 52.53 52.40 52.23 50.47 50.26 51.11 46.95 45.58 43.13 42.02 40.39 39.30 39.81 42.09 48.95 48.23 49.66 49.19 48.30 48.12 47.35 47.96 47.15 46.81 47.29 48.14 48.68 48.91 48.73 49.57 49.80 49.62 49.19 49.13 48.89 48.61 48.09
54.54 53.62 54.19 53.62 53.46 51.41 52.89 52.94 52.04 51.48 49.77 49.22 49.65 46.95 46.86 43.55 41.82 42.15 43.16 50.11 48.59 49.11 49.67 49.51 50.39 49.93 49.46 48.66 48.77 49.40 49.40 49.21 49.35 49.40 49.48 49.33 49.75 49.89 49.02 48.30 46.20 44.51 45.71
54.88 48.17 48.46 52.46 52.03 52.52 51.33 49.93 49.88 49.19 47.29 46.50 47.20 46.67 47.22 45.80 48.38 48.79 49.89 50.56 50.07 49.38 48.99 49.02 49.39 49.35 49.21 50.00 50.56 50.49 48.70 49.15 48.81 48.76 48.46 48.40 48.20 47.93 47.27 46.84 47.55 46.80 47.51
53.46 53.50 47.38 52.25 50.66 50.51 49.45 48.65 48.06 46.89 45.95 45.82 45.31 43.87 34.61 45.53 48.39 48.08 47.53 48.06 47.75 47.37 46.97 46.65 46.56 46.78 46.75 46.65 47.05 47.95 48.09 47.12 46.83 46.52 46.11 46.00 46.17 45.45 46.26 46.17 45.91 46.51 46.84
52.34 52.14 52.77 50.53 50.84 49.46 49.33 48.72 47.45 45.94 45.59 46.15 46.80 47.85 38.65 47.52 48.34 47.69 48.14 47.95 48.32 48.60 47.91 47.60 47.58 48.15 48.24 48.05 47.55 46.71 46.16 45.93 45.77 45.16 44.82 44.63 44.31 44.49 44.78 44.42 43.67 43.69 44.04
52.55 52.29 52.29 51.31 51.15 47.43 49.17 49.06 47.76 47.06 47.52 48.21 49.10 49.28 49.69 49.32 48.85 48.45 48.28 48.81 48.75 48.51 47.93 48.24 47.38 46.98 47.67 46.89 45.45 44.54 44.25 44.69 45.73 46.02 44.72 44.65 43.93 43.73 43.92 43.09 43.11 42.61 42.39
52.33 52.11 52.05 51.31 49.60 48.61 48.30 49.52 48.73 44.90 48.23 49.59 50.24 50.59 51.12 50.98 49.95 49.30 48.66 49.13 48.25 48.62 48.30 47.62 47.22 45.77 44.72 44.60 44.40 42.19 39.90 41.97 42.74 43.02 45.54 45.11 44.14 43.60 44.31 43.88 43.18 43.27 42.79
52.56 52.49 51.76 51.62 51.93 50.58 50.40 50.46 49.69 50.13 50.35 50.24 50.58 51.16 50.76 49.77 49.41 49.46 49.39 48.68 48.38 48.20 47.57 47.34 46.81 44.75 43.48 42.87 41.69 39.93 33.86 33.27 36.94 34.38 42.89 45.15 46.45 46.42 45.70 45.35 43.96 43.78 44.31
53.33 51.51 51.80 52.51 52.99 50.85 50.98 50.34 50.09 49.52 49.44 49.28 49.58 49.21 49.93 49.06 49.18 48.62 49.02 48.79 48.32 48.35 47.79 46.27 46.51 44.67 43.12 42.07 39.16 33.79 32.74 33.24 36.35 33.72 40.86 47.82 46.72 46.04 46.08 45.29 45.84 44.78 45.40
MSLP
1011.68 1012.52 1012.92 1013.46 1013.86 1014.58 1014.83 1014.97 1014.44 1014.05 1013.90 1014.07 1014.18 1014.23 1014.47 1014.60 1014.66 1014.84 1014.92 1014.75 1014.76 1014.62 1014.62 1014.72 1014.60 1014.58 1014.74 1014.85 1014.70 1014.73 1015.15 1015.37 1015.43 1015.13 1015.00 1014.87 1014.89 1014.92 1015.29 1015.50 1016.14 1016.89 1017.33
1011.47 1012.30 1013.06 1013.79 1014.11 1014.61 1014.69 1014.50 1014.14 1013.82 1013.93 1013.83 1013.89 1013.96 1014.09 1014.16 1014.29 1014.29 1014.20 1013.98 1013.97 1014.09 1014.07 1014.14 1014.12 1014.21 1014.30 1014.19 1013.72 1014.42 1014.87 1014.86 1015.11 1015.12 1015.10 1015.12 1015.21 1015.28 1015.34 1015.69 1016.19 1016.34 1017.05
1011.72 1012.82 1013.49 1013.96 1014.25 1014.34 1014.23 1013.91 1013.72 1013.64 1013.61 1013.58 1013.56 1013.58 1013.61 1013.78 1013.91 1013.99 1013.88 1013.71 1013.61 1013.52 1013.59 1013.43 1013.35 1013.74 1013.42 1013.89 1013.64 1013.92 1014.47 1014.85 1014.74 1015.14 1015.13 1015.06 1015.22 1015.51 1016.20 1015.97 1016.20 1016.86 1016.84
1012.19 1012.69 1013.15 1013.44 1013.51 1013.55 1013.50 1013.39 1013.33 1013.36 1013.41 1013.65 1013.69 1013.67 1013.79 1013.62 1013.61 1013.60 1013.78 1013.67 1013.43 1013.35 1013.33 1013.18 1013.06 1013.29 1013.39 1013.59 1013.61 1014.06 1014.25 1014.41 1014.58 1014.69 1015.14 1015.19 1015.39 1015.67 1015.76 1016.12 1016.38 1016.58 1016.78
1012.13 1012.65 1012.79 1012.89 1013.14 1013.39 1013.46 1013.39 1013.64 1013.87 1014.10 1014.21 1014.19 1013.98 1013.84 1013.70 1013.81 1013.77 1013.71 1013.49 1013.22 1012.97 1012.84 1012.82 1012.84 1012.76 1012.90 1013.03 1013.27 1013.43 1013.64 1013.97 1014.18 1014.49 1014.14 1014.42 1014.82 1015.13 1015.34 1015.40 1015.89 1016.49 1016.73
1011.96 1012.33 1012.81 1013.11 1013.27 1013.50 1013.54 1013.68 1014.11 1014.49 1014.61 1014.60 1014.45 1014.29 1014.02 1013.91 1013.87 1013.86 1013.80 1013.69 1013.50 1013.29 1013.06 1012.66 1012.43 1012.33 1012.33 1012.35 1012.56 1012.76 1012.90 1013.14 1012.60 1012.74 1013.25 1013.13 1013.25 1013.74 1014.23 1014.66 1015.32 1016.22 1016.57
1012.15 1012.42 1012.87 1013.08 1013.29 1013.56 1013.63 1013.85 1014.28 1014.55 1014.70 1014.60 1014.44 1014.21 1014.09 1013.93 1013.74 1013.71 1013.59 1013.61 1013.37 1013.07 1012.69 1012.40 1012.15 1011.94 1011.86 1011.98 1011.87 1012.08 1012.39 1012.33 1012.44 1012.82 1012.62 1011.97 1012.10 1012.30 1013.08 1013.70 1014.22 1014.78 1015.06
1012.23 1012.61 1012.97 1013.32 1013.70 1013.95 1014.07 1014.32 1014.41 1014.65 1014.82 1014.68 1014.50 1014.13 1013.96 1013.78 1013.59 1013.49 1013.40 1013.30 1012.88 1012.47 1012.18 1011.85 1011.60 1011.26 1011.00 1010.94 1010.86 1011.20 1011.70 1011.85 1011.92 1011.82 1011.76 1011.79 1011.94 1011.96 1012.38 1012.85 1013.19 1013.57 1014.41
1012.67 1013.00 1013.39 1013.68 1013.93 1014.21 1014.30 1014.41 1014.54 1014.71 1014.75 1014.58 1014.23 1014.00 1013.77 1013.53 1013.34 1013.09 1013.09 1012.96 1012.48 1012.12 1011.76 1011.45 1011.29 1011.16 1010.90 1010.62 1010.46 1010.67 1010.82 1011.06 1010.95 1010.90 1011.10 1011.20 1011.05 1011.32 1011.48 1012.13 1012.39 1013.18 1013.76
1013.29 1013.45 1013.61 1013.81 1014.03 1014.41 1014.47 1014.20 1014.38 1014.39 1014.36 1014.14 1013.97 1013.74 1013.53 1013.37 1013.32 1013.12 1012.99 1012.64 1012.69 1012.33 1011.85 1011.43 1011.21 1011.38 1011.25 1011.16 1010.78 1010.40 1010.49 1010.14 1010.18 1010.61 1011.00 1011.02 1010.72 1010.76 1010.91 1011.06 1011.53 1012.17 1012.76
1013.72 1013.69 1013.75 1013.92 1014.07 1014.11 1014.10 1013.99 1013.98 1014.08 1014.21 1014.32 1013.75 1013.41 1013.01 1012.88 1012.94 1012.58 1012.35 1012.08 1011.77 1011.76 1011.53 1011.19 1010.88 1011.07 1011.11 1011.10 1011.03 1010.79 1010.11 1010.03 1009.81 1009.76 1009.74 1009.77 1010.00 1010.30 1010.32 1010.41 1010.90 1011.21 1011.97
1013.86 1013.97 1013.86 1013.90 1013.88 1013.82 1013.84 1013.74 1013.80 1014.14 1014.19 1014.26 1013.80 1013.19 1013.28 1013.06 1012.53 1012.60 1012.40 1011.97 1012.05 1012.14 1011.49 1011.00 1010.82 1010.86 1010.55 1010.41 1010.64 1010.25 1010.08 1009.97 1009.70 1009.40 1009.11 1009.09 1009.35 1009.68 1009.88 1010.06 1010.35 1010.95 1011.39
1013.95 1013.98 1013.96 1013.86 1013.79 1013.66 1013.64 1013.86 1013.75 1013.91 1013.96 1014.01 1013.90 1013.09 1012.67 1012.47 1012.21 1012.23 1012.32 1012.23 1012.24 1012.07 1011.40 1011.05 1010.74 1010.49 1010.03 1009.51 1009.36 1009.61 1009.64 1009.48 1009.19 1008.95 1008.63 1008.58 1008.86 1009.20 1009.63 1009.91 1010.14 1010.88 1011.51
1013.70 1013.85 1013.80 1013.63 1013.51 1013.54 1013.52 1013.39 1014.10 1014.29 1014.80 1013.94 1013.82 1013.06 1012.78 1012.48 1012.25 1012.52 1012.57 1012.37 1012.16 1011.92 1011.67 1011.27 1010.48 1009.86 1009.29 1008.79 1008.97 1008.80 1008.81 1008.84 1008.63 1008.36 1008.19 1008.20 1008.49 1008.78 1009.02 1009.29 1009.95 1010.96 1011.76
1013.48 1013.54 1013.54 1013.46 1013.62 1013.41 1013.64 1014.46 1014.70 1014.62 1014.52 1014.09 1014.06 1013.41 1012.95 1012.75 1013.26 1013.33 1013.40 1013.06 1012.86 1012.47 1012.10 1011.05 1009.99 1009.15 1008.56 1008.15 1007.89 1008.11 1008.50 1008.60 1008.36 1008.07 1008.06 1008.20 1008.23 1008.42 1008.83 1009.40 1009.89 1010.92 1011.41
1013.45 1013.56 1013.66 1013.65 1013.57 1013.72 1014.10 1013.85 1014.38 1014.03 1013.33 1013.28 1013.57 1013.31 1013.06 1013.30 1013.17 1013.10 1012.98 1012.88 1012.50 1012.18 1011.82 1010.91 1010.30 1009.58 1008.84 1008.41 1008.07 1008.13 1008.40 1008.49 1008.42 1008.31 1008.17 1008.02 1008.52 1008.78 1008.97 1009.44 1010.01 1010.57 1011.25
1013.90 1014.07 1014.14 1014.02 1014.10 1013.95 1013.90 1013.83 1013.71 1013.21 1012.90 1013.34 1013.22 1013.42 1013.45 1013.52 1013.31 1013.09 1012.91 1012.82 1012.34 1012.01 1011.67 1011.04 1010.56 1010.01 1009.53 1009.23 1008.82 1008.41 1008.50 1008.66 1008.58 1008.50 1008.66 1008.69 1008.87 1008.70 1009.19 1009.23 1009.96 1010.56 1010.90
1014.36 1014.50 1014.36 1014.40 1014.25 1013.82 1013.48 1013.40 1013.52 1013.54 1013.42 1013.39 1013.71 1013.78 1013.92 1013.70 1013.30 1013.06 1012.79 1012.36 1012.22 1011.69 1011.65 1011.21 1010.89 1010.41 1009.93 1009.72 1009.57 1009.23 1009.24 1009.12 1009.01 1008.93 1008.93 1009.03 1009.07 1009.13 1009.35 1009.70 1010.11 1010.33 1010.47
1014.59 1014.50 1014.40 1014.29 1014.03 1014.06 1013.73 1013.64 1013.75 1013.85 1013.84 1013.92 1013.93 1013.82 1014.08 1013.91 1013.54 1013.25 1012.98 1012.65 1012.24 1011.57 1011.01 1010.71 1010.20 1009.82 1009.89 1009.78 1009.56 1009.58 1009.48 1009.33 1009.20 1009.06 1008.99 1009.05 1009.00 1009.06 1009.22 1009.35 1009.59 1009.50 1010.66
1014.47 1014.68 1014.47 1014.22 1014.01 1013.91 1014.08 1014.23 1014.41 1014.66 1014.83 1014.77 1014.62 1014.61 1014.46 1014.01 1013.43 1013.07 1012.64 1012.10 1011.49 1011.05 1010.58 1009.92 1009.56 1009.24 1009.05 1009.31 1009.06 1008.80 1008.76 1008.61 1008.71 1008.64 1008.64 1008.66 1008.66 1008.76 1009.16 1009.43 1009.88 1010.38 1011.09
1014.20 1014.27 1014.35 1014.24 1014.49 1014.53 1014.88 1015.22 1015.49 1015.52 1015.45 1015.31 1015.20 1015.18 1014.98 1014.69 1013.50 1012.81 1012.35 1011.91 1011.57 1011.38 1011.10 1010.67 1010.22 1010.01 1009.83 1009.49 1009.04 1008.49 1008.78 1009.07 1009.00 1009.15 1009.47 1009.55 1009.57 1009.68 1009.79 1010.12 1010.42 1010.75 1011.28
1014.31 1014.16 1014.33 1014.74 1014.68 1014.97 1015.24 1015.55 1015.75 1015.71 1015.51 1015.38 1015.19 1014.88 1014.52 1013.99 1013.29 1012.83 1012.48 1012.18 1011.97 1011.84 1011.74 1011.60 1011.23 1010.90 1010.63 1010.51 1010.59 1010.53 1010.35 1010.27 1010.37 1010.47 1010.60 1010.71 1010.73 1010.72 1010.74 1011.01 1011.28 1011.51 1011.93
1014.32 1014.11 1014.52 1014.63 1014.59 1014.83 1015.07 1015.32 1015.66 1015.52 1015.27 1015.14 1014.70 1014.41 1014.07 1013.68 1013.11 1012.76 1012.67 1012.62 1012.53 1012.39 1012.36 1012.25 1012.39 1012.27 1012.01 1011.90 1012.10 1012.20 1012.05 1011.81 1011.55 1011.43 1011.48 1011.53 1011.59 1011.63 1011.63 1011.81 1012.00 1012.24 1012.48
1014.44 1014.43 1014.49 1014.56 1014.79 1015.07 1015.29 1015.09 1015.06 1014.93 1014.43 1014.12 1013.87 1013.81 1013.61 1013.18 1012.95 1012.95 1012.95 1012.99 1013.05 1012.94 1012.80 1012.99 1013.18 1013.49 1013.54 1013.28 1013.33 1013.52 1013.53 1013.14 1012.78 1012.59 1012.27 1012.11 1012.18 1012.15 1012.11 1012.39 1012.61 1012.76 1013.00
1014.12 1014.44 1014.41 1014.83 1014.90 1014.69 1014.50 1014.27 1014.40 1014.35 1013.93 1013.70 1013.55 1013.17 1013.42 1013.33 1013.01 1013.08 1013.17 1013.37 1013.51 1013.51 1013.41 1013.47 1013.87 1014.30 1014.50 1014.48 1014.46 1014.38 1014.29 1013.85 1013.73 1013.69 1013.03 1012.62 1012.51 1012.39 1012.45 1012.64 1012.88 1013.04 1013.02
1014.86 1015.06 1015.00 1014.96 1014.90 1014.56 1014.05 1013.79 1013.31 1013.62 1013.38 1013.33 1013.43 1013.61 1013.56 1013.75 1013.79 1013.87 1013.69 1013.69 1013.74 1013.87 1013.94 1013.95 1014.26 1014.76 1015.03 1015.09 1015.18 1015.09 1014.84 1014.46 1014.11 1013.68 1013.27 1012.72 1012.72 1012.75 1012.75 1012.84 1012.88 1013.02 1013.15
Wind_Speed
10 8 8 6 3 3 2 3 4 5 4 6 5 5 5 8 6 7 10 13 13 12 10 10 12 8 8 8 6 4 4 5 7 5 1 0 2 5 4 7 10 7 8
10 8 5 3 1 3 5 6 5 5 6 7 6 5 5 6 7 10 11 11 11 11 10 8 11 7 10 6 5 4 5 6 4 6 3 2 2 2 4 6 5 4 8
9 6 4 1 5 4 6 4 4 5 5 3 1 3 4 4 5 7 8 10 10 10 9 8 7 7 9 7 7 6 5 5 4 3 4 1 2 2 2 2 3 3 3
7 4 1 5 5 6 4 3 5 8 9 11 8 6 6 2 5 5 6 6 6 5 5 4 9 6 6 6 6 7 7 8 4 7 5 2 2 2 2 3 3 2 3
4 5 7 5 4 6 6 7 10 9 10 10 10 9 8 8 6 6 6 6 6 7 6 6 6 7 11 9 6 10 10 9 8 7 7 7 8 4 8 3 3 2 3
6 6 7 6 5 5 5 5 8 7 7 7 9 9 9 7 6 4 4 5 7 8 8 7 6 7 9 11 14 17 12 10 12 12 11 11 13 9 5 7 7 4 5
4 6 6 5 6 6 5 5 4 4 4 5 6 7 6 6 10 8 6 5 6 7 9 9 9 7 7 7 10 12 14 12 11 8 11 10 10 9 8 10 11 10 7
2 6 6 6 6 6 6 6 5 5 5 5 7 6 5 6 9 8 7 6 7 8 9 10 10 10 9 10 8 8 8 9 11 8 8 10 9 7 8 9 12 11 4
6 6 5 5 5 5 5 4 4 4 4 6 6 7 7 6 11 12 4 7 7 6 7 7 8 9 11 13 10 6 5 7 8 12 12 12 12 12 11 8 8 9 5
6 5 5 5 4 5 6 3 1 4 5 5 7 7 10 10 10 5 2 2 7 8 8 7 8 8 11 12 6 4 6 8 5 6 5 8 10 11 15 13 9 9 6
6 6 5 4 3 6 4 2 5 5 5 11 10 9 7 6 6 10 10 4 4 5 6 6 6 4 3 4 8 8 9 4 8 6 6 6 5 6 8 10 9 9 9
5 7 5 5 5 6 5 4 3 3 5 9 7 4 5 7 8 10 10 8 4 6 7 7 6 12 13 8 7 11 10 7 5 6 6 6 4 4 6 8 9 6 4
6 6 5 6 7 8 6 4 5 5 2 4 7 8 6 5 5 5 4 5 9 6 7 7 8 11 16 12 11 12 8 5 6 6 7 6 6 7 7 8 7 7 2
5 6 5 5 8 5 4 4 3 4 10 8 12 9 8 7 5 5 6 7 9 9 12 11 14 16 19 18 9 6 2 5 5 6 5 3 4 6 6 5 6 4 3
6 5 5 5 5 6 5 5 7 6 4 7 9 5 6 6 4 2 3 7 7 9 9 7 9 7 7 6 5 1 1 2 3 1 2 3 3 5 4 5 4 4 3
6 5 7 7 8 7 7 7 12 11 14 12 8 3 3 6 8 10 10 10 11 7 4 5 5 7 8 7 5 1 1 2 2 1 2 3 3 2 2 5 4 6 8
6 9 6 8 8 7 4 6 7 7 6 3 3 10 6 5 8 8 9 9 10 1 2 4 5 6 4 6 7 3 2 3 4 4 3 4 2 3 4 4 4 4 4
7 7 6 4 5 7 8 8 6 6 7 7 8 7 7 9 8 7 7 6 2 2 3 4 4 5 4 4 4 3 3 3 3 3 2 1 3 2 3 5 6 8 2
5 4 5 7 6 5 5 6 8 8 8 8 8 3 8 5 4 4 8 4 3 4 4 4 3 4 2 2 2 3 4 4 4 4 4 3 4 5 5 3 3 9 12
5 5 4 6 6 7 8 8 9 9 8 6 5 5 4 4 2 4 2 4 4 4 6 4 4 4 4 4 4 4 4 1 2 2 4 4 5 4 6 6 5 6 7
4 4 2 5 6 8 9 7 7 6 5 4 4 4 5 6 5 4 4 5 6 8 9 10 9 9 9 8 9 6 6 8 7 9 9 8 8 7 6 5 4 6 7
4 2 5 3 5 7 7 6 4 2 1 3 3 3 7 4 4 3 5 5 8 8 8 9 10 10 9 10 11 10 9 9 9 8 8 7 6 5 5 5 5 4 4
0 4 3 1 3 6 3 7 4 3 1 0 1 2 4 4 3 4 6 6 7 7 9 8 9 9 10 10 11 10 9 8 7 5 5 5 4 4 4 4 4 5 4
5 4 2 2 6 5 2 3 2 4 4 4 3 3 1 2 2 5 5 6 6 7 8 9 9 13 10 9 9 8 8 8 7 7 7 4 4 3 3 4 4 4 5
5 2 2 5 3 1 4 7 8 6 3 3 4 2 2 4 6 6 7 7 7 6 7 8 8 12 11 13 12 12 10 10 11 8 5 4 2 2 3 4 4 3 3
3 6 3 1 3 6 5 6 5 4 3 4 6 7 6 7 7 7 8 8 5 6 8 7 10 13 11 9 10 10 9 9 10 11 6 4 5 4 3 3 5 3 3
Wind_Direction
119 122 139 179 157 70 299 275 270 284 280 271 262 278 288 283 269 253 258 258 254 256 252 244 242 231 230 234 224 209 235 241 249 252 210 218 303 115 151 112 140 159 173
125 131 110 86 103 344 293 275 274 315 308 290 303 305 299 306 297 282 277 272 267 267 266 252 247 240 237 242 257 258 256 243 198 242 200 207 179 117 154 132 166 117 157
118 113 128 192 261 256 249 291 287 278 297 318 337 291 317 298 291 292 288 291 294 287 286 271 258 263 243 232 231 221 235 279 247 231 247 115 123 137 86 77 112 136 86
124 136 211 219 220 232 235 358 20 29 15 9 2 5 329 328 295 308 314 305 293 285 281 265 277 248 227 223 238 247 254 235 223 203 218 177 146 193 140 164 178 181 159
161 193 204 210 48 46 23 15 36 34 16 4 353 351 1 352 24 345 324 327 322 312 298 283 277 272 269 257 233 242 239 238 227 233 228 212 212 178 205 157 181 158 208
166 91 60 44 32 55 18 36 56 34 6 352 343 336 331 336 358 334 308 309 308 306 299 300 278 265 267 255 241 243 239 259 238 221 225 226 216 198 177 186 190 174 215
20 70 70 36 19 13 5 25 49 27 340 336 307 302 323 315 297 298 274 279 292 288 289 289 291 288 277 272 260 240 242 225 220 261 289 254 222 210 208 200 190 197 205
16 53 48 34 9 0 352 52 32 29 356 347 321 315 327 319 319 298 287 268 274 279 277 279 270 268 252 236 248 253 214 222 232 217 224 261 239 197 199 198 193 201 175
42 34 19 3 355 352 0 35 39 8 326 292 293 306 304 289 294 276 286 294 280 291 289 293 314 329 322 273 248 266 254 251 238 215 235 221 224 230 223 197 173 171 173
20 356 347 345 24 357 300 297 17 267 272 293 303 293 297 313 2 60 92 253 319 331 328 323 328 50 27 3 310 264 259 260 245 192 223 242 238 249 207 192 173 182 162
344 331 339 344 353 268 267 269 259 272 321 318 293 298 266 270 237 225 208 223 239 276 297 306 305 51 5 310 280 283 262 343 304 231 225 207 217 217 213 193 184 176 170
331 326 327 318 299 309 290 277 324 36 332 296 329 324 327 330 325 334 287 251 329 301 298 311 356 334 324 293 286 264 290 281 272 272 241 226 198 197 190 177 162 166 155
328 314 312 310 304 289 291 332 306 324 358 313 267 317 315 304 308 328 252 247 267 271 299 317 301 293 287 282 236 239 245 237 255 247 248 219 199 191 178 170 141 153 196
278 276 277 286 288 318 325 254 57 9 292 356 324 319 319 307 323 20 341 337 340 334 347 317 297 279 267 261 280 212 293 287 253 261 239 160 155 164 163 137 146 145 151
301 291 291 307 329 325 18 55 359 331 309 333 296 318 315 325 38 69 9 348 329 315 313 300 295 309 306 311 283 155 239 279 297 202 160 158 146 145 137 138 119 165 171
317 350 357 343 341 4 18 357 312 291 295 283 283 213 330 101 29 16 359 331 319 307 288 330 339 327 325 333 329 265 175 245 269 61 41 96 100 148 155 169 167 160 200
20 16 4 356 345 330 305 271 293 328 315 122 343 47 57 342 349 354 333 344 335 352 305 338 360 25 16 15 9 33 51 49 36 51 62 56 13 58 125 91 163 194 225
12 56 8 349 312 302 322 346 354 347 345 341 50 78 35 360 347 331 318 310 300 328 340 4 346 335 8 17 21 48 42 20 18 29 276 202 233 196 182 194 197 210 175
351 358 343 327 336 8 342 336 3 3 3 359 356 16 47 23 14 13 341 352 333 308 277 273 265 230 199 212 217 218 243 230 221 221 222 212 219 218 211 159 57 106 111
312 108 309 319 339 2 23 15 8 16 11 356 355 359 358 321 51 37 335 278 280 313 357 353 22 13 32 195 234 220 251 153 154 110 54 39 30 56 85 61 102 123 126
296 294 308 19 47 26 34 24 20 9 0 22 21 18 314 314 343 338 356 9 23 29 18 6 20 20 12 1 3 6 44 40 35 43 49 42 38 38 61 64 53 65 108
320 57 61 83 76 64 55 58 62 64 42 41 29 332 289 305 324 352 31 20 30 38 35 17 10 16 17 28 32 31 36 37 51 55 55 50 44 38 40 53 67 59 106
343 71 111 218 114 137 115 100 104 121 134 119 5 274 327 317 355 24 41 39 35 38 35 38 33 20 18 37 44 34 31 36 32 46 57 52 52 52 57 71 72 89 74
276 101 204 239 75 70 209 116 151 213 227 276 208 336 251 236 119 63 49 56 54 33 49 38 50 46 30 40 46 39 26 23 26 15 13 49 61 45 77 54 100 109 115
302 123 43 47 14 329 237 216 200 264 259 294 359 269 104 329 41 57 62 67 43 47 39 65 49 62 49 47 41 34 20 23 37 356 330 309 310 96 84 141 178 175 159
19 70 86 155 187 258 292 301 349 183 33 85 58 37 50 50 46 25 32 26 60 62 51 62 63 69 52 37 28 19 11 12 11 353 345 1 55 51 83 159 156 172 133